GFSCGP_925_thetae_273.txt.gz
Theta_e
302 300 299 301 302 302 302 302 301 303 301 301 300 300 301 301 299 300 301 298 298 299 300 300 302 304 303 303 303 302 302 301 300 301 300 300 301 302 301 300 301 301 300 300
300 298 301 301 301 301 301 301 300 302 301 300 301 300 302 303 303 303 302 301 301 299 297 299 300 302 303 303 303 302 302 301 301 301 300 301 300 300 299 301 301 301 300 299
298 300 300 301 301 301 301 301 302 303 303 301 300 302 303 305 303 303 303 302 301 301 298 298 299 300 301 302 302 302 302 302 301 301 300 300 299 299 300 301 301 300 299 298
300 299 299 299 301 300 301 301 302 302 302 301 303 302 303 305 306 304 302 301 301 300 299 299 299 299 300 301 302 302 302 301 301 300 300 299 299 300 300 300 300 299 299 298
299 297 299 300 300 300 301 300 302 302 302 303 303 302 302 303 307 307 303 301 300 299 299 297 299 299 300 301 302 302 301 301 301 300 300 299 299 299 299 300 299 298 298 297
299 297 298 299 297 299 299 300 302 302 302 303 302 303 302 307 308 306 305 303 301 299 299 299 298 299 299 301 302 302 301 301 300 300 300 299 299 299 299 299 298 298 297 297
299 297 296 297 297 298 300 301 307 308 304 306 301 303 304 305 305 305 304 303 300 299 298 297 297 297 299 300 301 301 301 301 300 300 300 299 299 299 299 298 297 297 296 296
299 299 295 295 297 298 298 302 305 305 316 314 301 305 308 305 304 304 302 301 300 299 298 298 297 297 299 300 301 301 301 301 300 300 299 299 298 299 298 297 297 296 296 295
302 305 296 295 296 297 298 300 301 303 297 304 303 303 305 305 303 302 302 300 299 299 298 298 297 297 299 301 302 302 301 301 300 300 299 299 298 298 298 297 296 296 295 295
303 301 296 295 295 296 298 298 301 300 298 305 307 305 306 308 305 302 302 300 299 298 298 297 297 297 299 301 302 302 302 301 300 300 299 299 298 298 297 296 296 295 295 294
295 301 298 295 294 296 296 298 299 302 306 309 310 308 302 305 305 304 301 300 299 298 298 297 296 298 300 300 302 302 301 301 301 300 299 299 298 297 296 296 295 295 295 294
298 298 297 296 295 294 296 298 299 303 303 304 308 306 304 306 304 302 303 302 299 298 297 296 296 297 298 299 300 301 301 300 300 300 299 298 297 297 296 295 295 294 294 293
301 299 295 298 296 293 293 296 299 300 301 301 303 305 301 304 305 304 304 303 301 300 298 298 296 296 296 298 299 300 300 300 300 300 298 297 297 296 295 295 294 294 293 293
300 304 298 305 302 294 292 294 297 297 297 302 305 305 305 304 304 303 304 303 302 301 300 298 297 296 297 298 299 299 299 300 299 298 298 297 297 296 295 294 294 294 293 293
301 304 303 303 304 297 296 292 296 299 301 302 304 303 304 304 303 303 301 301 300 300 299 298 297 297 296 298 299 299 299 299 299 297 297 297 296 295 295 294 294 293 293 293
298 302 300 302 301 303 304 301 296 298 299 300 302 301 302 301 301 301 301 301 300 300 300 299 298 298 297 297 298 298 298 298 298 296 296 296 295 295 294 294 293 293 293 292
298 301 304 310 304 302 305 304 302 299 297 300 301 302 301 301 300 302 303 303 303 299 300 300 299 298 297 298 300 298 298 298 296 296 296 295 295 294 294 293 292 292 292 292
301 302 306 309 305 308 307 303 302 303 303 301 301 303 304 304 302 303 303 303 304 303 301 298 300 298 299 301 300 299 298 296 296 295 295 295 294 294 293 292 292 292 292 291
304 306 308 308 308 307 306 304 301 299 302 300 301 301 301 301 301 301 301 302 303 303 302 300 301 300 300 300 300 298 295 294 294 294 294 294 294 293 293 292 292 291 291 290
303 305 307 307 308 307 304 303 302 298 307 290 294 302 301 300 300 303 302 301 300 299 299 299 299 299 299 299 298 295 293 293 293 294 294 294 294 294 293 293 292 291 291 291
303 305 305 306 306 305 298 295 300 302 302 289 289 289 291 297 297 296 297 299 298 298 296 297 296 295 297 298 296 293 292 292 294 294 295 294 294 294 293 292 291 290 288 289
303 304 305 304 306 307 289 293 297 291 288 287 286 286 288 288 289 290 291 293 295 293 293 294 293 293 294 295 294 292 291 294 294 294 294 294 293 293 292 291 290 287 286 287
299 297 297 294 296 292 289 288 287 286 287 285 284 284 284 285 286 285 285 287 290 291 292 293 292 291 292 293 293 291 293 293 293 293 293 293 293 292 292 290 289 286 286 286
292 293 291 292 295 291 289 286 285 285 284 282 281 282 282 283 284 283 283 284 284 285 287 289 291 289 290 293 293 293 293 293 293 292 292 292 291 290 290 289 288 287 287 286
287 289 290 292 291 290 286 281 278 280 280 278 277 278 280 282 282 280 281 281 281 281 281 282 285 288 290 292 292 292 292 293 292 291 290 290 290 289 288 288 287 287 288 290
286 284 288 288 285 285 286 279 275 276 275 275 274 275 276 279 278 277 277 278 278 277 277 278 278 280 283 286 290 293 292 291 292 290 289 288 288 287 287 287 286 287 287 289

GFSCGP_925_thetae_276.txt.gz
Theta_e
300 298 299 302 302 303 302 303 301 301 301 301 300 301 302 302 298 298 299 298 298 298 299 298 301 302 302 302 303 303 303 302 302 301 300 300 300 301 301 301 300 301 300 300
297 297 298 300 300 301 301 301 300 301 301 300 300 300 302 302 301 301 301 301 300 300 296 297 298 300 300 301 302 302 302 302 301 301 300 300 300 301 301 300 300 301 300 299
297 299 299 300 300 300 300 300 300 302 302 300 299 301 302 303 301 301 302 302 301 301 299 297 297 298 300 300 300 301 302 302 301 300 300 300 300 299 299 300 301 301 299 299
297 298 299 299 300 299 299 299 301 302 302 300 302 301 302 304 304 304 303 300 301 299 299 298 297 297 299 299 300 301 302 302 301 300 300 300 300 299 300 300 301 300 299 298
298 297 298 299 298 298 299 300 301 301 301 301 301 301 300 302 305 306 303 301 299 298 297 297 298 298 299 299 300 301 302 302 301 301 300 300 300 299 299 299 299 299 298 297
297 296 297 298 297 298 298 300 301 301 300 301 300 300 299 303 305 307 305 304 301 299 297 296 297 299 298 299 299 300 301 301 301 301 300 300 299 299 299 299 299 298 298 297
298 297 296 296 297 297 299 299 303 303 299 303 301 301 302 303 304 304 306 303 302 298 297 296 295 295 296 297 299 299 300 300 301 301 300 300 300 299 299 299 298 297 297 296
297 298 295 295 296 297 298 298 303 301 308 308 301 304 306 304 303 302 302 302 300 298 297 296 295 296 297 297 298 299 299 300 300 300 300 300 300 299 299 298 298 297 297 296
297 301 295 295 295 296 297 300 301 302 296 302 302 301 302 304 302 302 301 299 299 299 298 297 296 295 297 298 299 299 300 300 300 300 300 300 299 298 298 298 297 297 296 295
299 301 296 295 295 295 297 297 300 299 297 301 304 303 304 306 305 301 301 299 298 298 297 296 295 295 297 298 299 300 300 300 300 300 300 300 299 298 298 298 297 296 296 295
296 300 297 295 294 296 296 298 297 298 302 304 307 306 302 303 304 302 300 299 298 297 297 296 295 296 297 299 300 300 300 300 299 300 300 299 299 298 298 298 297 296 295 295
301 302 296 295 294 294 295 298 299 300 301 303 307 306 304 302 303 302 303 301 299 297 296 295 295 295 296 297 299 300 300 300 300 300 300 299 299 298 298 297 296 295 295 294
302 303 298 297 295 292 292 295 298 299 300 301 303 305 301 303 304 303 304 303 300 298 296 296 295 295 294 296 298 299 300 300 300 300 299 299 298 298 297 297 296 295 294 294
304 305 307 308 300 294 292 291 297 297 297 303 304 304 305 303 303 302 302 303 301 299 298 297 295 294 295 297 298 298 299 300 300 299 299 299 298 298 297 296 295 295 294 294
304 305 306 307 302 296 297 292 296 298 301 301 303 301 301 301 301 301 300 300 300 300 299 297 297 297 295 295 297 298 299 299 299 298 298 298 298 298 297 296 295 294 293 293
300 307 303 307 306 304 305 304 295 298 299 299 300 299 301 300 298 298 299 299 299 299 298 298 298 296 296 297 297 297 298 298 298 297 298 298 297 297 296 295 294 293 293 293
300 303 302 309 307 307 305 305 305 301 297 299 300 300 301 300 300 301 302 300 300 299 299 298 297 298 298 298 298 297 299 298 297 296 296 296 296 296 296 295 294 293 293 292
301 301 304 308 304 308 306 304 304 304 303 300 301 302 303 302 302 301 300 300 301 301 301 299 298 297 298 300 299 300 298 298 296 295 295 295 295 295 295 294 293 293 292 292
302 304 306 308 306 305 305 303 299 302 303 293 294 295 295 294 297 299 294 293 295 296 298 298 298 298 299 299 300 298 296 296 294 293 294 294 295 294 294 293 293 292 292 292
303 304 305 307 308 308 304 299 293 297 305 290 289 290 290 292 299 296 289 289 290 292 291 293 294 294 295 297 297 295 293 292 292 293 294 295 294 294 293 293 292 292 292 292
299 302 303 304 305 304 292 291 291 303 297 288 287 287 288 289 288 288 286 286 286 287 286 288 290 291 292 293 293 292 292 291 295 294 294 294 294 294 294 293 292 292 291 290
295 300 302 302 302 302 291 290 296 290 289 287 285 285 285 285 286 285 284 284 284 283 283 284 285 288 289 289 290 291 291 292 293 293 293 293 293 293 293 293 292 290 289 287
297 291 294 292 293 291 289 289 288 287 288 285 284 282 283 283 284 284 282 282 282 281 282 281 282 283 284 286 287 289 291 292 292 292 292 292 292 292 292 291 290 288 287 286
292 291 290 290 292 290 287 284 283 284 283 281 280 279 279 279 281 282 281 281 281 280 279 279 279 280 280 281 284 286 289 292 293 292 291 290 290 290 290 290 289 288 287 286
288 288 289 291 290 285 281 280 278 280 279 278 277 277 277 277 278 279 278 278 278 278 276 276 277 277 277 278 282 284 287 288 290 290 290 290 289 289 288 289 289 288 289 288
284 283 288 287 281 284 282 277 275 275 275 274 274 274 274 275 276 275 274 274 273 273 272 274 274 274 274 276 278 279 283 286 287 289 288 288 288 288 288 287 287 288 289 289

GFSCGP_925_thetae_279.txt.gz
Theta_e
299 299 300 304 302 304 303 305 305 302 301 302 301 301 303 303 299 297 299 299 298 299 301 301 301 301 301 301 301 302 302 302 301 301 300 300 300 300 300 301 301 300 301 300
297 298 298 299 299 302 302 301 302 300 300 300 299 299 300 301 300 300 301 301 300 300 299 298 298 300 299 300 301 301 302 302 301 301 300 300 300 299 300 301 301 301 300 300
295 297 297 296 298 299 298 299 300 301 301 299 299 301 301 301 300 300 300 302 301 300 300 297 296 298 299 299 300 300 301 302 302 301 300 300 300 299 300 301 300 300 300 300
296 296 299 298 298 298 297 297 299 301 300 298 301 300 301 302 302 302 302 301 300 299 299 298 297 297 298 299 300 300 301 301 302 301 300 300 300 299 300 300 299 300 300 299
298 296 297 298 298 297 298 299 300 300 299 299 300 301 299 300 302 303 303 300 299 299 298 297 297 297 298 299 299 299 300 301 301 301 301 300 300 300 299 299 300 300 299 298
297 295 296 297 296 297 297 300 301 299 298 297 298 299 302 300 302 305 305 303 302 298 296 295 296 297 297 298 299 299 299 300 300 301 300 300 300 299 299 299 299 299 298 298
298 296 296 296 296 297 298 297 299 297 295 300 298 299 301 301 302 303 304 303 302 300 297 295 294 295 297 297 297 298 299 299 299 300 300 299 300 300 299 299 299 298 298 297
297 297 295 294 296 298 297 298 300 298 302 303 300 301 302 301 301 302 301 301 300 300 297 296 294 295 296 296 297 298 298 299 299 299 300 300 300 300 299 299 299 298 297 297
296 298 295 295 295 296 297 300 299 301 294 301 302 301 300 302 302 302 301 300 300 300 298 297 296 294 295 296 297 298 298 299 299 300 300 300 300 300 299 299 298 298 297 297
299 301 295 294 295 295 296 297 300 298 296 299 301 302 302 303 304 303 301 300 298 298 298 297 296 295 295 296 297 297 298 299 299 299 299 300 300 300 299 298 298 298 297 296
297 301 296 294 294 296 296 297 296 297 300 301 303 303 300 301 301 304 301 299 298 297 296 295 295 294 295 296 297 298 298 298 299 299 300 300 300 299 299 298 298 298 297 296
301 304 297 296 294 294 294 297 298 299 298 301 304 304 303 302 301 301 303 302 300 297 296 294 294 294 294 296 297 298 298 298 299 299 299 299 299 299 298 298 298 297 296 296
302 305 303 303 297 292 292 295 298 299 300 300 303 303 299 301 303 302 303 303 300 298 297 295 294 294 294 295 296 298 298 299 299 299 299 298 298 298 298 298 298 297 296 295
305 306 307 311 306 298 297 293 297 300 300 302 303 303 304 303 302 302 302 300 300 300 298 296 294 294 293 295 296 297 299 299 299 299 299 298 298 298 298 298 298 297 296 295
307 309 308 307 305 298 301 297 296 299 301 300 303 301 301 300 302 301 300 299 298 299 298 297 296 295 294 294 296 298 299 299 299 299 298 299 298 298 298 297 297 297 295 294
301 307 306 311 309 310 307 301 300 299 298 299 299 299 298 298 298 298 297 297 297 296 296 297 297 296 295 295 296 296 297 298 298 298 299 299 298 298 297 297 297 296 295 294
302 304 307 310 307 307 306 306 304 299 296 298 299 299 299 299 299 297 295 294 295 294 294 294 295 296 296 298 298 297 300 298 297 296 297 297 297 297 296 296 296 295 294 293
301 302 305 307 305 310 307 304 306 306 306 303 304 304 295 293 293 291 289 289 290 290 291 290 290 290 292 293 295 297 297 297 296 295 296 296 296 296 295 296 295 294 294 293
300 301 303 305 306 306 304 299 299 303 299 291 292 291 290 290 292 291 288 287 287 287 287 286 286 287 289 290 290 291 294 294 294 294 295 295 295 294 294 294 294 294 293 293
299 301 301 303 306 305 300 293 291 293 300 289 289 288 288 290 297 290 287 286 285 285 284 284 283 284 286 286 286 288 290 292 292 294 295 294 294 294 294 293 293 293 293 293
294 299 302 303 303 297 292 291 290 302 294 288 287 287 287 288 287 287 286 284 284 283 282 282 281 283 283 282 283 287 288 289 291 292 293 293 293 294 293 293 293 293 292 291
288 292 294 295 299 298 290 290 293 289 288 287 286 285 286 285 285 285 284 283 282 281 281 280 279 280 280 280 281 284 285 286 288 292 292 292 292 292 292 292 292 291 291 290
292 290 289 291 292 289 288 288 287 287 288 286 284 282 281 281 281 280 282 282 280 279 279 277 276 278 278 277 278 281 281 284 285 288 290 291 291 291 291 291 289 289 289 288
291 291 290 286 290 288 286 283 283 283 283 281 280 279 279 278 279 279 280 280 279 278 277 275 275 276 275 275 275 277 278 281 283 286 287 288 289 289 289 289 289 288 287 287
287 288 286 288 288 285 281 279 279 279 279 277 277 276 276 276 276 277 277 276 275 274 274 272 273 273 272 272 273 274 275 277 280 284 286 287 288 288 288 288 289 289 290 290
281 281 286 286 279 281 281 277 274 275 275 274 273 273 273 273 274 273 273 272 271 271 270 270 270 269 269 269 270 272 272 274 276 281 284 286 287 287 288 288 288 288 289 290

GFSCGP_925_thetae_282.txt.gz
Theta_e
298 299 299 301 305 302 303 304 305 304 302 302 301 302 303 304 300 299 300 299 297 298 301 303 301 301 301 301 300 301 300 301 301 300 300 299 300 300 300 300 300 301 301 301
296 297 298 299 301 302 303 303 303 301 300 300 299 299 300 300 301 300 302 301 300 300 299 299 300 300 300 300 300 300 301 301 301 300 300 299 300 300 300 300 300 301 300 300
295 296 295 298 297 299 298 303 302 301 299 298 298 300 299 299 299 300 300 300 301 300 300 298 297 299 300 299 299 300 300 301 301 301 300 299 299 299 299 299 300 301 300 300
295 294 297 295 296 297 299 296 298 298 299 297 298 298 300 301 302 299 299 299 299 299 299 298 297 297 299 299 300 300 300 300 300 301 300 299 299 299 299 299 300 300 300 300
297 295 296 297 297 295 296 296 296 299 298 299 298 298 300 300 301 301 301 299 297 297 297 297 297 297 298 299 299 300 300 300 299 300 300 299 299 300 300 299 300 300 300 300
296 295 295 296 296 296 296 299 299 297 296 296 296 296 301 298 299 302 304 303 303 300 297 295 295 296 297 299 299 299 299 299 299 299 299 300 299 299 299 299 300 299 300 300
297 296 295 295 296 297 297 297 298 295 292 299 297 295 301 299 300 299 300 300 300 299 298 295 294 293 295 297 298 298 298 298 298 299 299 299 300 300 299 299 299 299 299 299
298 299 296 294 296 298 297 297 299 297 298 299 298 299 299 298 298 298 299 299 298 299 297 297 294 293 294 296 297 297 297 297 298 298 299 299 300 299 299 299 299 299 299 299
297 298 295 295 295 297 298 299 297 299 293 300 302 301 300 301 301 300 300 299 299 299 298 298 297 293 294 295 296 297 297 298 297 298 299 299 299 299 299 299 299 299 299 298
300 300 295 294 294 294 296 297 299 296 295 298 300 300 301 302 301 303 301 300 299 298 298 296 295 293 294 295 296 297 297 298 298 298 298 299 299 299 299 299 299 298 299 298
300 303 297 295 295 297 297 298 296 297 299 301 299 300 297 300 300 300 301 300 299 298 296 295 295 293 294 295 296 296 297 298 298 298 298 299 299 299 299 299 299 298 298 297
299 305 302 297 294 293 294 296 297 300 298 299 302 302 301 301 299 301 300 298 298 298 296 294 294 293 292 294 295 296 296 297 298 298 299 299 299 299 299 299 299 298 298 297
301 302 301 303 298 292 293 295 297 298 299 300 301 302 299 299 299 299 298 296 296 296 294 293 293 292 292 293 295 295 296 296 297 298 298 298 298 298 298 299 299 298 297 297
304 306 299 307 305 298 295 295 297 300 301 302 301 302 301 298 298 297 296 294 295 295 294 294 294 293 292 293 294 295 296 297 297 297 297 298 298 298 298 298 298 298 297 297
306 310 307 307 304 299 301 296 298 299 300 301 301 299 300 298 298 295 295 295 295 294 294 293 293 293 293 293 294 295 295 296 297 297 297 298 298 298 298 298 298 297 297 297
301 308 306 309 308 306 305 298 298 299 299 300 300 299 298 298 296 295 292 292 292 292 291 290 290 290 290 291 291 291 292 294 295 297 298 297 297 297 297 297 297 297 296 296
298 303 306 309 307 309 309 307 304 301 303 302 303 304 299 297 295 290 290 290 289 288 288 287 287 287 287 289 289 288 289 291 293 295 296 297 297 297 297 296 296 296 296 296
296 297 300 305 296 308 305 304 307 308 308 301 299 294 292 293 290 289 287 287 287 286 286 285 285 284 285 285 285 285 287 289 290 292 294 295 295 295 295 295 295 295 294 295
296 297 300 301 303 304 306 294 292 298 296 290 292 290 289 290 291 290 287 286 285 285 284 284 282 283 283 282 282 284 286 287 288 289 291 292 293 294 294 294 294 294 293 293
296 297 299 302 303 303 293 292 292 292 293 289 290 289 289 291 297 290 287 285 284 283 282 282 280 281 281 280 280 284 284 284 285 285 286 289 291 292 293 293 292 292 292 292
287 292 293 294 297 293 290 291 290 299 291 289 289 288 288 289 288 287 285 284 282 281 280 280 278 279 279 278 278 281 281 280 281 283 284 287 290 292 292 293 292 292 291 291
290 289 290 293 294 292 289 290 291 290 290 288 286 284 284 283 283 282 281 282 281 280 278 277 276 276 276 275 275 277 278 277 277 280 283 285 288 289 291 291 291 290 290 289
288 288 288 291 291 289 288 289 288 287 289 285 283 281 280 280 280 280 280 280 279 278 276 275 274 274 273 272 272 273 274 275 275 277 282 284 286 288 289 290 289 288 288 288
286 286 288 286 286 288 286 282 282 282 281 280 278 278 277 276 277 277 278 278 277 275 274 273 273 273 272 271 270 271 272 272 273 275 278 283 285 286 288 289 289 288 287 288
288 288 284 285 287 285 281 279 278 279 278 276 275 275 275 274 275 275 275 274 273 272 272 270 271 271 270 269 269 269 270 269 271 274 276 280 284 285 287 287 288 288 288 289
281 279 287 287 278 279 279 276 274 275 274 273 272 272 272 272 272 273 272 271 270 270 269 269 269 268 267 267 267 268 268 268 269 272 274 276 279 284 285 287 287 288 288 289

GFSCGP_925_thetae_285.txt.gz
Theta_e
296 298 299 300 305 302 303 304 304 305 302 303 302 303 303 304 301 301 303 303 303 302 302 303 302 302 301 300 300 301 301 301 301 300 299 299 299 300 300 300 300 300 300 301
296 298 298 297 300 302 303 304 303 301 300 300 300 300 300 300 301 301 302 302 302 302 300 301 302 301 300 300 300 300 300 300 300 300 299 298 299 300 300 300 300 300 300 300
297 297 295 298 298 301 300 303 302 302 299 297 297 299 300 298 299 299 300 301 301 301 302 299 300 301 300 300 300 300 300 300 300 300 299 298 299 299 299 299 299 299 300 300
296 294 295 296 297 298 300 297 300 300 300 298 296 297 299 300 301 299 299 300 300 300 299 299 298 299 300 300 300 300 300 300 299 299 298 298 299 298 298 299 299 300 300 300
298 294 295 296 297 297 298 294 296 297 296 298 297 297 298 299 299 299 299 299 298 296 296 297 297 299 299 300 300 300 300 299 299 299 298 298 299 299 299 299 299 300 300 300
296 294 295 295 295 295 295 298 298 296 296 296 296 296 302 299 298 299 301 302 302 301 299 296 294 296 297 299 299 300 299 299 299 298 298 299 299 299 299 299 299 299 300 299
297 296 295 295 297 297 297 297 299 297 295 300 295 295 301 299 298 298 298 298 298 297 297 297 295 294 295 297 298 299 299 298 298 298 298 299 299 299 299 299 299 299 299 299
299 299 296 294 297 298 297 298 300 298 298 299 296 298 299 297 296 297 296 298 298 297 297 297 296 293 293 296 297 298 298 298 297 297 298 298 299 299 299 299 299 299 300 299
296 298 295 295 295 297 298 299 297 299 292 300 301 300 299 300 300 299 299 299 299 299 298 298 297 293 293 295 296 298 298 297 297 297 298 298 298 298 298 299 299 299 299 299
298 299 295 294 294 294 297 297 299 297 296 298 299 298 301 302 302 300 299 297 297 297 296 295 294 293 292 294 295 296 297 297 297 297 298 298 298 299 299 299 299 299 299 299
297 302 296 295 295 297 297 298 296 298 300 302 300 301 296 299 300 298 296 296 295 294 293 292 292 291 292 293 294 296 296 297 297 297 297 298 298 298 298 299 299 299 299 299
296 301 298 294 293 293 294 298 297 300 298 298 300 301 298 299 297 296 295 294 294 293 292 292 291 291 291 292 293 294 296 297 297 297 297 298 298 298 298 299 299 299 299 298
299 302 294 305 298 293 292 295 297 298 299 299 301 301 296 296 295 293 294 295 295 294 293 293 292 292 292 291 291 293 293 295 296 297 297 297 297 298 298 298 298 298 298 298
298 304 303 306 303 294 294 294 296 300 303 302 301 301 299 297 295 294 294 293 293 292 291 290 290 290 290 290 290 290 291 294 295 296 296 297 297 297 297 298 298 298 298 298
293 298 307 306 302 297 294 294 296 298 300 302 304 300 298 296 296 293 292 291 290 290 289 288 288 287 288 289 288 288 289 291 292 294 295 296 296 296 296 297 297 297 297 297
292 295 298 304 305 308 310 305 296 297 298 299 299 299 297 295 292 291 290 290 289 288 287 287 286 286 286 285 285 285 286 288 290 292 294 295 295 296 297 297 296 296 296 296
291 296 294 297 299 304 308 309 298 300 300 300 301 301 297 296 292 290 289 288 288 287 286 285 284 284 284 283 282 283 286 287 288 289 290 291 293 295 295 295 295 296 295 295
292 293 295 296 294 299 304 292 295 303 296 294 298 292 293 291 289 287 286 286 286 285 284 283 282 282 282 281 280 283 284 284 285 285 286 288 289 291 293 294 294 294 294 294
294 294 296 297 295 297 297 291 290 293 291 290 291 290 290 290 290 288 286 285 284 283 282 282 280 280 280 279 278 281 282 281 282 282 283 285 286 288 290 292 293 293 293 292
290 292 293 292 295 297 291 290 291 292 290 290 289 289 289 290 294 289 284 284 282 282 280 280 278 279 278 277 276 279 280 279 278 278 280 283 285 287 288 290 292 292 292 292
283 285 289 288 291 293 290 290 290 293 290 288 287 286 286 287 286 284 282 282 281 280 279 278 276 277 276 274 275 276 277 276 275 276 278 281 284 285 288 289 290 291 291 291
286 284 283 286 291 291 289 289 289 290 289 287 284 283 283 283 282 281 281 281 279 278 277 276 275 275 274 272 273 273 274 273 272 274 277 280 282 284 286 288 289 290 290 290
282 285 285 288 289 289 288 289 285 286 287 283 282 280 279 280 279 279 278 279 278 276 275 274 273 274 272 271 271 271 270 271 270 272 274 277 281 283 285 287 288 289 289 289
281 282 288 287 283 286 284 282 281 281 280 278 277 277 276 275 277 277 277 277 275 274 273 271 271 272 271 270 269 269 269 268 269 270 272 275 278 280 283 285 287 287 287 288
284 283 282 286 288 284 281 278 278 279 277 276 275 274 274 274 274 274 274 274 273 271 271 269 269 270 269 268 267 267 268 267 267 268 271 273 275 278 281 284 285 286 287 288
280 281 286 287 277 278 279 276 274 275 273 273 272 272 272 271 271 271 271 270 270 269 268 268 268 267 266 265 266 265 266 266 266 267 269 270 273 275 280 282 284 285 287 287

GFSCGP_925_thetae_288.txt.gz
Theta_e
300 302 303 303 305 306 306 306 306 306 306 307 309 310 310 309 308 308 308 308 308 309 310 309 308 307 307 306 305 306 305 304 303 302 302 301 301 301 301 301 301 300 300 300
299 302 304 303 304 305 305 305 305 305 305 304 306 306 306 306 306 306 306 307 307 308 308 308 306 306 307 306 304 304 304 304 303 302 301 301 301 301 301 301 300 300 300 300
306 309 302 301 302 304 304 305 305 304 304 304 303 305 305 306 306 306 306 306 306 306 307 307 305 306 306 306 304 304 304 303 302 301 301 300 300 300 301 300 300 299 300 300
301 306 301 300 301 302 303 304 304 304 304 303 301 303 305 306 305 303 304 305 305 305 305 305 305 304 305 305 304 303 303 303 302 301 301 300 300 300 300 300 300 300 300 300
304 299 299 303 303 301 303 302 303 304 304 304 302 300 304 303 304 305 306 306 306 306 305 304 304 304 304 304 304 303 303 303 302 301 301 300 300 300 300 300 300 299 299 300
302 296 298 300 297 301 299 300 300 300 301 303 303 301 306 307 306 306 305 305 306 306 305 304 303 302 302 303 304 303 303 303 302 302 301 301 301 301 300 300 300 300 299 300
302 299 297 297 298 298 301 301 304 305 305 307 303 302 305 306 305 304 306 306 304 305 305 305 304 301 301 302 303 303 303 303 302 301 301 301 301 301 300 300 301 300 300 299
306 307 299 298 301 301 300 302 307 311 310 308 298 302 305 304 305 304 303 303 304 305 304 303 302 301 300 300 301 302 302 302 301 301 301 301 301 301 300 300 301 300 300 300
304 303 297 296 298 301 300 301 302 305 300 305 305 303 304 305 305 305 304 304 304 302 302 301 300 299 298 299 300 301 301 301 301 300 301 300 301 300 300 300 300 300 300 299
299 304 297 296 296 298 300 301 301 303 308 308 307 307 308 307 306 302 301 300 300 299 298 298 297 297 296 297 298 300 300 301 300 300 300 300 300 300 300 299 299 299 299 299
300 300 300 297 299 300 299 301 301 305 304 308 308 309 302 303 302 301 299 299 299 298 298 297 297 296 295 296 296 298 299 300 300 300 300 300 300 299 299 299 299 299 299 299
299 301 301 302 297 295 299 301 302 304 305 302 305 307 302 300 300 301 300 299 297 297 296 295 295 296 295 295 294 295 296 298 299 299 299 300 299 299 299 299 299 299 299 298
294 300 304 302 300 296 299 299 299 302 302 311 308 307 300 299 300 299 299 297 296 295 295 294 293 293 293 292 293 293 293 295 296 298 298 299 299 298 299 299 299 298 298 298
291 294 298 300 301 301 300 299 299 302 305 305 304 306 301 300 300 298 296 295 294 293 292 292 292 291 290 290 290 291 291 292 293 295 297 298 298 298 298 298 298 298 298 297
290 291 293 293 294 297 304 300 299 301 302 305 303 303 303 300 298 295 294 294 293 292 290 290 289 289 289 288 288 288 290 290 291 293 295 296 297 297 297 297 297 297 297 297
290 290 291 295 293 297 298 300 306 304 300 301 305 307 298 296 295 293 292 292 291 290 288 287 287 287 286 285 285 287 287 288 289 290 291 293 294 295 295 296 296 296 296 296
288 290 292 293 293 294 298 301 301 306 304 304 302 301 300 295 292 291 290 289 288 286 286 284 284 284 283 282 283 286 285 285 287 287 288 288 289 292 293 294 295 295 295 295
289 290 292 294 294 296 297 292 294 294 291 293 294 294 294 292 289 288 286 286 285 285 284 283 282 282 280 279 280 283 283 282 283 284 285 285 286 287 289 291 292 293 294 294
290 291 288 292 296 295 293 292 292 292 291 290 290 290 291 290 290 287 286 284 283 282 282 280 279 280 278 277 277 280 280 279 279 280 281 282 284 286 287 289 290 292 292 293
286 288 292 290 292 294 291 291 291 292 291 289 288 288 288 292 294 287 284 284 282 281 280 278 278 278 276 275 276 277 277 276 275 275 277 279 281 285 286 287 288 290 291 292
286 286 288 289 289 291 290 290 290 293 291 288 287 286 286 286 285 284 283 283 281 279 278 277 276 277 275 273 274 275 274 273 273 273 274 277 279 282 285 286 288 289 289 290
285 286 287 288 289 288 290 289 289 290 289 287 285 284 284 284 283 281 281 281 279 278 277 275 275 275 274 272 272 272 272 271 271 271 273 275 277 279 283 285 288 289 289 290
285 285 285 286 286 289 287 288 285 286 289 285 283 281 280 281 280 280 279 279 278 276 275 274 273 273 273 271 270 271 270 270 269 270 271 273 275 278 279 284 286 288 288 289
285 285 287 287 287 288 286 282 282 281 281 279 278 278 277 277 277 277 277 277 276 274 273 272 272 272 272 270 269 269 268 268 268 268 270 271 273 275 278 281 285 286 288 288
286 285 286 286 287 287 281 280 279 279 277 276 275 275 275 275 275 275 274 274 274 273 272 271 270 270 270 269 267 267 266 266 267 267 269 270 271 273 275 279 280 283 286 287
286 286 286 287 282 282 283 278 275 277 275 274 273 273 272 272 272 272 272 272 271 270 270 269 269 268 268 267 266 265 264 264 264 266 268 268 269 271 274 276 277 280 283 285

GFSCGP_925_thetae_291.txt.gz
Theta_e
302 303 306 306 306 306 307 307 307 307 308 308 309 310 310 310 310 311 312 312 312 313 314 315 314 312 312 313 313 313 313 310 308 306 305 305 305 305 305 304 304 304 303 303
305 305 309 309 308 306 306 307 308 308 307 307 307 307 308 307 309 309 309 310 310 310 310 311 311 313 312 312 312 312 312 310 307 305 304 304 304 305 304 304 303 304 302 302
310 310 309 309 309 307 307 308 309 309 308 307 306 307 308 308 308 308 308 309 309 309 309 310 310 311 311 311 311 310 310 309 307 306 305 304 304 303 303 303 303 303 303 302
308 309 308 311 308 309 307 308 308 308 307 308 306 307 309 309 308 309 309 309 309 309 309 309 309 310 310 310 311 310 309 308 307 306 305 304 303 303 303 302 302 302 302 301
309 307 306 307 311 307 307 306 307 306 306 307 307 304 308 308 307 307 308 309 309 309 309 308 308 308 308 308 309 309 308 308 307 306 305 304 303 303 302 302 302 302 301 302
307 305 302 305 307 308 305 304 302 303 305 309 308 308 310 311 312 313 311 309 308 308 308 307 306 306 306 306 308 308 307 307 306 305 305 304 303 303 302 301 302 302 302 302
307 308 304 299 301 301 305 304 308 308 308 308 309 308 309 310 308 308 308 308 308 307 308 307 307 307 305 305 307 308 307 306 306 305 305 304 304 303 302 302 302 302 302 302
305 310 308 304 301 304 303 306 312 315 317 313 310 307 311 310 309 308 306 306 306 307 307 304 303 303 303 303 304 306 306 306 305 305 305 304 304 303 303 302 302 303 302 302
298 302 303 300 301 303 304 304 305 308 308 307 310 306 308 308 307 307 306 306 305 303 302 301 300 300 300 301 302 304 305 305 305 305 305 304 304 304 302 302 302 303 302 302
295 299 300 299 298 299 302 302 304 305 307 311 310 311 312 311 309 305 304 303 301 301 300 300 299 299 298 299 300 302 303 304 304 304 304 304 304 303 303 303 303 303 302 302
295 295 298 299 300 301 300 301 303 306 305 311 312 312 305 305 304 303 302 301 300 299 298 298 298 297 297 297 298 299 301 302 303 303 303 303 303 303 303 302 302 302 302 301
292 293 296 296 300 298 298 301 302 306 306 306 308 311 303 303 303 302 301 300 299 298 297 296 296 295 294 295 295 296 297 299 301 301 302 302 302 302 302 302 302 302 301 301
291 291 293 294 301 296 298 299 302 302 303 308 309 307 303 302 302 301 300 299 297 296 295 295 294 293 293 293 293 294 294 294 296 299 300 301 302 302 302 302 301 301 301 301
289 289 289 292 293 293 294 298 298 303 304 304 305 306 305 303 302 300 298 297 295 294 293 293 292 291 290 290 291 291 292 293 294 296 298 300 300 301 301 301 301 301 301 300
289 288 288 290 290 290 294 298 298 299 305 304 304 305 306 305 300 297 296 295 293 291 290 289 289 287 286 287 289 289 289 290 292 293 295 297 298 299 299 300 300 300 300 300
289 288 289 288 290 292 294 295 297 299 299 304 301 302 300 298 297 295 293 291 290 288 287 286 286 285 283 283 285 286 286 287 288 289 290 290 292 295 297 298 298 299 299 299
289 289 289 290 290 292 293 295 297 297 294 295 302 298 297 296 292 291 290 288 287 286 285 284 283 283 281 280 282 283 283 283 284 285 286 286 288 289 290 293 296 297 297 297
288 288 289 292 289 293 295 293 293 294 292 291 292 292 293 292 288 287 286 286 284 284 282 281 282 280 278 278 279 281 279 279 280 280 281 282 283 286 287 289 290 293 295 296
288 288 287 288 290 290 293 292 293 293 292 290 290 289 290 289 288 286 285 284 283 282 281 280 280 278 277 276 277 278 277 277 276 276 278 279 281 283 286 287 288 289 291 292
286 287 287 288 287 290 292 289 290 292 294 290 289 289 288 291 292 287 285 283 283 281 280 278 278 278 276 275 275 276 275 274 273 273 274 276 278 281 284 286 287 288 289 290
286 287 286 287 287 289 290 288 290 293 292 289 288 287 287 286 285 284 283 283 281 279 278 277 277 277 275 274 274 275 274 273 272 272 273 274 276 279 281 283 286 288 289 289
286 286 287 286 285 285 288 288 288 289 289 289 287 285 285 285 284 283 282 282 280 279 277 276 276 276 274 272 272 273 272 271 270 270 272 272 274 277 278 282 285 287 288 289
286 286 286 285 286 288 288 288 288 286 287 286 285 282 281 281 281 280 280 279 278 277 276 275 274 274 273 271 271 271 270 269 269 269 270 271 273 274 276 279 282 285 287 289
286 287 287 287 287 288 289 287 284 283 283 281 279 279 279 278 278 278 278 278 277 276 275 273 273 273 272 271 270 269 268 267 267 268 269 271 272 272 274 276 279 281 283 286
286 287 287 287 287 287 288 284 283 282 280 278 278 277 277 276 276 276 275 275 275 274 273 272 271 271 271 270 269 267 266 265 266 267 268 270 270 271 272 274 277 277 279 282
287 287 287 287 287 286 286 283 279 279 280 277 276 276 275 274 273 273 273 273 272 271 271 270 269 269 269 268 267 266 265 264 264 266 267 268 268 270 271 273 275 275 277 278